Weather in Kadoma

Zimbabwe     18°20′07″S   29°55′11″E
temp.,
°C
wind,
m/s
gust,
m/s
humid.,
%
clouds,
%
prec.,
mm/h
press.,
hPa
HPBL,
m
13 may, thu
thu1323:00+14e26620 0.0 1020126
02:00+13e35700 0.0 1020102
05:00+11e24800 0.0 102179
08:00+16ene35620 0.0 1022297
11:00+24ene23370 0.0 10201760
14:00+26e23265 0.0 10152431
17:00+23ese12335 0.0 101516
20:00+17ne22445 0.0 101834
14 may, fri
fri1423:00+14ene24594 0.0 101962
02:00+13ne22660 0.0 101928
05:00+12ene23760 0.0 102054
08:00+17ne35590 0.0 1021283
11:00+25ne22330 0.0 10181825
14:00+27ene12250 0.0 10142470
17:00+23s11332 0.0 101411
20:00+18ene22438 0.0 101712
15 may, sat
sat1523:00+15n37520 0.0 1018131
02:00+13ene22690 0.0 101815
05:00+12ene11730 0.0 101811
08:00+18ene22520 0.0 1019218
11:00+26nw22310 0.0 10171815
14:00+28w22250 0.0 10132380
17:00+24w22320 0.0 101320
20:00+18wnw11400 0.0 101611
16 may, sun
sun1623:00+17nw22460 0.0 101615
02:00+13ese21573 0.0 101712
05:00+13e226117 0.0 101717
08:00+18ese12475 0.0 1019174
11:00+28nw112617 0.0 10161727
14:00+29w222060 0.0 10122779
17:00+25wsw22275 0.0 101332
20:00+20wsw01337 0.0 101511
17 may, mon
mon1723:00+17w22395 0.0 101612
02:00+14ese22475 0.0 101722
05:00+13se23505 0.0 101839
08:00+19ese233889 0.0 1018156
11:00+29ese122128 0.0 10162100
14:00+30e23160 0.0 10132828
17:00+26ene22230 0.0 101426
20:00+20ese33292 0.0 101639